Showing default

YAOGAN-31 K, 47854

Orbit data source: Space-Track

YAOGAN-31 K, 47854 is a payload satellite owned by PLA SSF (CN) in LEO that was launched on Sat, 13 Mar 2021 UTC via a CHANG ZHENG 4C launch vehicle from the Jiuquan Satellite Launch Center, China (JSC). Payload-class satellites include a variety of spacecraft equipped with specific instruments for various scientific and technological missions. These include communications satellites like Starlink; space stations such as the ISS; scientific satellites like the Hubble; Earth observation satellites from companies like Planet Labs, Umbra, and HawkEye 360; GPS; miniature CubeSats for education and research; and military/defense satellites.

Loading next visibility...
Identifier
47854, 2021-020A
Orbit
LEO
Country
Flag of CNCN / PRC
Related business
Manufacturer
DFH
Mission
Operational Defense Sigint
Bus & Motor
JB-8B, Unknown motor
Mass
~500 kg wet, ~500 kg dry
Launch date (UTC)
2021-03-13 (5 years ago)
Launch vehicle
CHANG ZHENG 4C
Launch site
Jiuquan Satellite Launch Center, China (JSC)
Object type
Payload
Rocket body
Debris
Shape & HBR
Box + 2 Pan, 0.5 m
Radar Cross Section
0.446 m², Large (>1 m²)

Expand to show TLE details & history
Last TLE update: 21 hours ago

TLE from 21 hours ago
0 YAOGAN-31 K
1 47854U 21020A   26172.54463652 -.00000021  00000-0  10682-3 0  9990
2 47854  63.4050 246.7964 0175342   0.4552 359.6603 13.45447974259055
Epoch: 2026-06-21T13:04Z
TLE epoch observation values (Epoch: 2026-06-21T13:04:16.595Z)
Latitude
0.00002°
Longitude
140.98388°
Altitude
959.879 km
Speed
7.437 km/s
True Right ascension
16h 27m 11s
True Declination
0° 00' 00"
Sunlit
Object was in full shadow at epoch
Visualization orbit readout
Latitude
Unknown
Longitude
Unknown
Altitude
Unknown
Speed
Unknown
Apparent Right ascension
Unknown
Apparent Declination
Unknown
Sunlit
N/A
Visualization observer readout
Local Sidereal Time
21:31:20
Azimuth
Unknown
Elevation
Unknown
Doppler factor
Unknown
Orbital elements
Apogee altitude
1,218.793 km
Perigee altitude
956.971 km
Semi-major axis
7,466.019 km
Eccentricity
0.01753
Inclination
63.405°
RAAN
246.7964°
Arg. of periapsis
0.4552°
True anomaly
359.64812°
Mean anomaly
359.6603°
Eccentric anomaly
359.65424°
Mean motion
3.36441 °/min
Orbital period
107 mins
BSTAR
0.00010682
Loading maneuver chart data...
Computing Atmospheric mass density...
Loading historical data...
Loading historical data...
Loading historical data...
Loading historical data...
Loading historical data...
Loading historical data...
Loading historical data...
Other satellites on launch #20 in the year 2021 (2021-03-13 UTC)

Documentation

Showing up to 5 results
|